QPF
0.00 0.00 0.00 0.00 0.00 0.01 0.01 0.01 0.02 0.03 0.03 0.03 0.02 0.01 0.01 0.02 0.02 0.01 0.01 0.02 0.03 0.03 0.04 0.04 0.03 0.02 0.02 0.02 0.03 0.04 0.05 0.04 0.03 0.03 0.03 0.03 0.03 0.03 0.02 0.02 0.03 0.03 0.03
0.00 0.00 0.00 0.00 0.00 0.01 0.01 0.01 0.02 0.03 0.03 0.03 0.02 0.02 0.02 0.02 0.02 0.01 0.01 0.01 0.02 0.02 0.02 0.02 0.02 0.02 0.02 0.02 0.02 0.03 0.05 0.05 0.03 0.02 0.02 0.02 0.02 0.03 0.02 0.03 0.04 0.04 0.04
0.00 0.00 0.00 0.00 0.00 0.01 0.01 0.01 0.02 0.03 0.04 0.03 0.03 0.02 0.02 0.02 0.02 0.01 0.01 0.02 0.02 0.02 0.02 0.02 0.01 0.02 0.02 0.02 0.02 0.02 0.04 0.05 0.03 0.02 0.02 0.02 0.02 0.03 0.02 0.02 0.03 0.04 0.06
0.00 0.01 0.01 0.00 0.00 0.01 0.01 0.01 0.02 0.03 0.03 0.03 0.02 0.02 0.02 0.02 0.02 0.02 0.02 0.02 0.03 0.03 0.02 0.02 0.01 0.01 0.02 0.02 0.02 0.02 0.04 0.06 0.05 0.03 0.02 0.02 0.03 0.03 0.03 0.02 0.02 0.03 0.04
0.01 0.01 0.01 0.01 0.00 0.01 0.01 0.01 0.02 0.03 0.03 0.03 0.02 0.02 0.02 0.02 0.02 0.02 0.03 0.02 0.02 0.03 0.04 0.03 0.02 0.02 0.02 0.02 0.02 0.02 0.03 0.04 0.04 0.04 0.03 0.02 0.03 0.03 0.03 0.02 0.02 0.02 0.02
0.01 0.01 0.01 0.01 0.01 0.01 0.01 0.02 0.02 0.03 0.03 0.03 0.02 0.02 0.02 0.02 0.03 0.03 0.03 0.02 0.01 0.02 0.03 0.05 0.05 0.04 0.04 0.04 0.04 0.03 0.03 0.04 0.04 0.03 0.02 0.02 0.02 0.02 0.02 0.02 0.01 0.02 0.02
0.01 0.01 0.01 0.01 0.01 0.01 0.02 0.02 0.03 0.03 0.03 0.03 0.02 0.02 0.02 0.02 0.02 0.03 0.03 0.02 0.02 0.01 0.02 0.04 0.05 0.06 0.07 0.06 0.05 0.05 0.04 0.03 0.03 0.02 0.02 0.02 0.02 0.02 0.02 0.02 0.01 0.01 0.01
0.00 0.00 0.00 0.01 0.01 0.01 0.01 0.02 0.02 0.02 0.03 0.03 0.03 0.02 0.02 0.02 0.02 0.02 0.02 0.02 0.01 0.02 0.03 0.04 0.04 0.05 0.07 0.08 0.07 0.06 0.05 0.03 0.02 0.02 0.01 0.01 0.01 0.01 0.02 0.02 0.02 0.02 0.01
0.00 0.00 0.01 0.01 0.01 0.01 0.01 0.01 0.02 0.02 0.03 0.03 0.03 0.03 0.02 0.02 0.02 0.02 0.02 0.01 0.01 0.02 0.03 0.04 0.04 0.03 0.04 0.06 0.07 0.07 0.06 0.04 0.03 0.02 0.02 0.02 0.02 0.01 0.02 0.04 0.03 0.03 0.02
0.01 0.01 0.01 0.01 0.01 0.02 0.02 0.02 0.02 0.02 0.03 0.03 0.03 0.03 0.02 0.02 0.02 0.02 0.02 0.02 0.01 0.02 0.02 0.02 0.03 0.03 0.03 0.03 0.03 0.04 0.05 0.04 0.03 0.02 0.02 0.02 0.01 0.01 0.02 0.03 0.03 0.02 0.02
0.01 0.01 0.01 0.01 0.01 0.02 0.02 0.02 0.02 0.02 0.03 0.03 0.03 0.03 0.02 0.02 0.02 0.02 0.03 0.03 0.02 0.02 0.01 0.01 0.02 0.02 0.02 0.03 0.03 0.02 0.03 0.03 0.02 0.02 0.02 0.01 0.01 0.01 0.02 0.03 0.03 0.03 0.03
0.00 0.01 0.01 0.01 0.01 0.01 0.02 0.02 0.02 0.02 0.02 0.03 0.03 0.03 0.02 0.02 0.02 0.02 0.02 0.03 0.03 0.02 0.02 0.01 0.02 0.03 0.03 0.02 0.02 0.02 0.02 0.02 0.02 0.02 0.02 0.02 0.02 0.02 0.02 0.03 0.03 0.03 0.03
0.01 0.01 0.01 0.01 0.01 0.01 0.02 0.02 0.02 0.02 0.02 0.03 0.02 0.02 0.02 0.02 0.02 0.02 0.02 0.02 0.02 0.02 0.02 0.02 0.02 0.02 0.02 0.02 0.02 0.02 0.02 0.01 0.01 0.01 0.01 0.01 0.02 0.02 0.01 0.02 0.02 0.02 0.03
0.01 0.01 0.01 0.02 0.02 0.02 0.02 0.02 0.02 0.02 0.03 0.04 0.03 0.02 0.02 0.02 0.02 0.02 0.01 0.01 0.01 0.02 0.02 0.02 0.01 0.01 0.01 0.01 0.02 0.02 0.01 0.01 0.01 0.01 0.01 0.01 0.02 0.02 0.01 0.01 0.01 0.02 0.02
0.02 0.02 0.02 0.02 0.02 0.02 0.02 0.02 0.02 0.02 0.03 0.04 0.04 0.03 0.02 0.02 0.02 0.03 0.02 0.01 0.01 0.01 0.01 0.01 0.01 0.01 0.01 0.01 0.01 0.01 0.01 0.01 0.01 0.01 0.01 0.01 0.02 0.02 0.01 0.01 0.01 0.01 0.02
0.02 0.02 0.02 0.02 0.02 0.02 0.02 0.02 0.02 0.02 0.02 0.02 0.03 0.04 0.03 0.03 0.03 0.02 0.02 0.02 0.02 0.01 0.01 0.01 0.01 0.01 0.01 0.01 0.01 0.01 0.01 0.01 0.01 0.01 0.01 0.01 0.02 0.02 0.01 0.01 0.01 0.01 0.02
0.02 0.02 0.02 0.02 0.02 0.02 0.02 0.02 0.02 0.03 0.02 0.02 0.03 0.04 0.04 0.03 0.02 0.02 0.02 0.02 0.02 0.01 0.01 0.01 0.01 0.01 0.01 0.01 0.01 0.01 0.01 0.01 0.01 0.01 0.01 0.01 0.01 0.01 0.01 0.01 0.02 0.02 0.02
0.03 0.02 0.02 0.02 0.02 0.02 0.02 0.02 0.02 0.02 0.02 0.02 0.02 0.02 0.03 0.03 0.02 0.02 0.02 0.02 0.03 0.02 0.01 0.01 0.01 0.01 0.01 0.01 0.01 0.01 0.01 0.01 0.01 0.01 0.02 0.01 0.01 0.01 0.01 0.01 0.02 0.02 0.02
0.03 0.03 0.03 0.03 0.03 0.03 0.03 0.02 0.02 0.02 0.02 0.02 0.02 0.02 0.02 0.02 0.02 0.02 0.02 0.02 0.03 0.03 0.02 0.02 0.01 0.01 0.01 0.01 0.01 0.01 0.01 0.01 0.01 0.01 0.01 0.01 0.01 0.01 0.01 0.01 0.01 0.02 0.02
0.03 0.03 0.03 0.03 0.03 0.03 0.02 0.02 0.02 0.03 0.02 0.02 0.02 0.02 0.02 0.02 0.02 0.02 0.02 0.02 0.03 0.03 0.02 0.02 0.02 0.02 0.02 0.01 0.01 0.01 0.01 0.01 0.01 0.01 0.01 0.01 0.01 0.01 0.01 0.01 0.01 0.01 0.02
0.02 0.02 0.02 0.02 0.02 0.02 0.02 0.02 0.02 0.02 0.02 0.02 0.02 0.02 0.02 0.02 0.02 0.02 0.02 0.02 0.02 0.02 0.02 0.02 0.02 0.02 0.01 0.01 0.01 0.01 0.01 0.01 0.01 0.01 0.01 0.01 0.01 0.01 0.01 0.01 0.01 0.01 0.01
0.01 0.01 0.01 0.02 0.02 0.02 0.02 0.02 0.02 0.02 0.02 0.02 0.02 0.01 0.01 0.01 0.01 0.01 0.02 0.02 0.02 0.02 0.02 0.02 0.02 0.01 0.01 0.01 0.01 0.01 0.01 0.01 0.01 0.01 0.01 0.01 0.01 0.01 0.01 0.01 0.01 0.01 0.01
0.02 0.02 0.02 0.01 0.01 0.02 0.02 0.02 0.01 0.02 0.02 0.01 0.01 0.01 0.01 0.01 0.01 0.01 0.01 0.01 0.01 0.01 0.01 0.02 0.02 0.01 0.01 0.01 0.01 0.01 0.01 0.01 0.01 0.01 0.01 0.01 0.01 0.01 0.01 0.01 0.01 0.01 0.01
0.02 0.02 0.02 0.01 0.01 0.02 0.01 0.02 0.01 0.01 0.01 0.01 0.01 0.01 0.01 0.01 0.01 0.01 0.01 0.01 0.01 0.01 0.01 0.01 0.01 0.01 0.01 0.01 0.01 0.01 0.01 0.01 0.01 0.01 0.01 0.01 0.01 0.01 0.01 0.01 0.01 0.01 0.01
0.02 0.02 0.02 0.02 0.02 0.02 0.02 0.02 0.01 0.01 0.01 0.01 0.01 0.01 0.01 0.01 0.01 0.01 0.01 0.01 0.01 0.01 0.01 0.01 0.01 0.01 0.01 0.02 0.01 0.01 0.01 0.01 0.01 0.01 0.01 0.01 0.01 0.01 0.01 0.01 0.01 0.01 0.01
0.02 0.02 0.02 0.02 0.02 0.02 0.02 0.02 0.02 0.02 0.01 0.01 0.01 0.01 0.01 0.01 0.01 0.01 0.01 0.01 0.01 0.01 0.01 0.01 0.01 0.01 0.01 0.01 0.01 0.01 0.01 0.01 0.01 0.01 0.01 0.01 0.01 0.01 0.01 0.01 0.01 0.01 0.01
MSLP
1030.46 1030.32 1030.16 1029.91 1029.54 1028.98 1028.24 1027.33 1026.27 1025.11 1023.91 1022.73 1021.61 1020.60 1019.71 1018.93 1018.27 1017.70 1017.19 1016.71 1016.22 1015.69 1015.10 1014.42 1013.64 1012.78 1011.84 1010.87 1009.91 1009.04 1008.32 1007.82 1007.58 1007.63 1007.96 1008.55 1009.33 1010.20 1011.07 1011.87 1012.53 1013.00 1013.28
1030.20 1030.04 1029.86 1029.62 1029.25 1028.72 1028.02 1027.15 1026.13 1025.01 1023.83 1022.65 1021.51 1020.47 1019.55 1018.76 1018.10 1017.55 1017.09 1016.68 1016.28 1015.85 1015.34 1014.73 1013.99 1013.14 1012.19 1011.18 1010.18 1009.26 1008.50 1007.97 1007.72 1007.78 1008.15 1008.78 1009.60 1010.52 1011.45 1012.29 1012.98 1013.48 1013.78
1029.93 1029.76 1029.56 1029.31 1028.94 1028.43 1027.77 1026.94 1025.98 1024.91 1023.76 1022.61 1021.48 1020.43 1019.50 1018.69 1018.03 1017.49 1017.07 1016.71 1016.39 1016.04 1015.62 1015.09 1014.43 1013.62 1012.70 1011.70 1010.69 1009.76 1008.99 1008.44 1008.18 1008.24 1008.60 1009.22 1010.04 1010.97 1011.90 1012.76 1013.48 1014.01 1014.34
1029.69 1029.50 1029.28 1029.00 1028.63 1028.14 1027.51 1026.74 1025.84 1024.83 1023.75 1022.63 1021.54 1020.50 1019.56 1018.75 1018.08 1017.55 1017.14 1016.83 1016.57 1016.29 1015.96 1015.52 1014.95 1014.23 1013.38 1012.44 1011.48 1010.58 1009.82 1009.28 1009.00 1009.02 1009.34 1009.92 1010.68 1011.56 1012.46 1013.30 1014.01 1014.57 1014.95
1029.49 1029.28 1029.03 1028.73 1028.34 1027.86 1027.27 1026.55 1025.72 1024.79 1023.79 1022.75 1021.70 1020.70 1019.77 1018.96 1018.28 1017.74 1017.34 1017.05 1016.82 1016.61 1016.35 1016.01 1015.54 1014.94 1014.20 1013.37 1012.50 1011.67 1010.96 1010.43 1010.14 1010.11 1010.36 1010.85 1011.52 1012.30 1013.12 1013.90 1014.59 1015.15 1015.57
1029.34 1029.10 1028.82 1028.49 1028.09 1027.61 1027.05 1026.39 1025.64 1024.81 1023.90 1022.95 1021.97 1021.01 1020.11 1019.30 1018.62 1018.06 1017.65 1017.35 1017.14 1016.96 1016.78 1016.52 1016.17 1015.69 1015.09 1014.39 1013.65 1012.93 1012.29 1011.80 1011.50 1011.43 1011.60 1011.97 1012.52 1013.17 1013.88 1014.58 1015.21 1015.76 1016.20
1029.20 1028.94 1028.63 1028.27 1027.86 1027.39 1026.86 1026.26 1025.60 1024.86 1024.06 1023.20 1022.31 1021.42 1020.56 1019.76 1019.06 1018.49 1018.04 1017.72 1017.50 1017.34 1017.19 1017.01 1016.76 1016.41 1015.96 1015.42 1014.83 1014.23 1013.69 1013.25 1012.97 1012.87 1012.96 1013.22 1013.63 1014.15 1014.72 1015.31 1015.88 1016.40 1016.84
1029.04 1028.77 1028.43 1028.05 1027.62 1027.16 1026.66 1026.13 1025.55 1024.92 1024.23 1023.49 1022.69 1021.87 1021.05 1020.27 1019.57 1018.96 1018.48 1018.12 1017.87 1017.70 1017.57 1017.44 1017.28 1017.04 1016.73 1016.34 1015.91 1015.45 1015.03 1014.67 1014.42 1014.31 1014.34 1014.51 1014.81 1015.19 1015.64 1016.12 1016.60 1017.06 1017.49
1028.83 1028.54 1028.19 1027.78 1027.35 1026.90 1026.44 1025.97 1025.48 1024.95 1024.37 1023.73 1023.03 1022.28 1021.52 1020.76 1020.05 1019.42 1018.90 1018.49 1018.20 1018.01 1017.88 1017.78 1017.68 1017.54 1017.35 1017.11 1016.82 1016.52 1016.22 1015.96 1015.77 1015.67 1015.68 1015.79 1015.99 1016.26 1016.60 1016.97 1017.37 1017.77 1018.16
1028.55 1028.24 1027.86 1027.45 1027.01 1026.58 1026.16 1025.75 1025.33 1024.90 1024.41 1023.87 1023.26 1022.59 1021.87 1021.15 1020.44 1019.80 1019.24 1018.80 1018.47 1018.25 1018.12 1018.04 1017.98 1017.92 1017.84 1017.72 1017.57 1017.40 1017.23 1017.08 1016.97 1016.91 1016.92 1017.00 1017.15 1017.34 1017.59 1017.88 1018.19 1018.52 1018.87
1028.16 1027.84 1027.46 1027.04 1026.61 1026.20 1025.82 1025.46 1025.10 1024.74 1024.34 1023.87 1023.34 1022.73 1022.07 1021.38 1020.69 1020.05 1019.48 1019.02 1018.67 1018.44 1018.30 1018.23 1018.22 1018.22 1018.22 1018.21 1018.18 1018.13 1018.09 1018.04 1018.02 1018.03 1018.07 1018.15 1018.27 1018.42 1018.60 1018.81 1019.06 1019.32 1019.61
1027.70 1027.37 1026.99 1026.57 1026.16 1025.77 1025.42 1025.09 1024.79 1024.47 1024.12 1023.71 1023.23 1022.68 1022.06 1021.41 1020.76 1020.14 1019.60 1019.15 1018.81 1018.58 1018.46 1018.42 1018.44 1018.50 1018.57 1018.65 1018.71 1018.78 1018.83 1018.89 1018.95 1019.03 1019.11 1019.22 1019.33 1019.46 1019.60 1019.76 1019.94 1020.14 1020.37
1027.19 1026.86 1026.49 1026.08 1025.69 1025.32 1024.99 1024.68 1024.40 1024.11 1023.78 1023.40 1022.95 1022.43 1021.86 1021.25 1020.65 1020.08 1019.58 1019.18 1018.89 1018.71 1018.62 1018.63 1018.70 1018.81 1018.95 1019.09 1019.24 1019.38 1019.52 1019.66 1019.80 1019.93 1020.07 1020.20 1020.33 1020.45 1020.57 1020.69 1020.82 1020.96 1021.12
1026.67 1026.35 1025.99 1025.61 1025.23 1024.88 1024.56 1024.26 1023.98 1023.67 1023.34 1022.96 1022.52 1022.02 1021.47 1020.92 1020.38 1019.88 1019.46 1019.14 1018.93 1018.82 1018.81 1018.88 1019.01 1019.18 1019.37 1019.57 1019.77 1019.97 1020.17 1020.37 1020.56 1020.74 1020.92 1021.08 1021.22 1021.35 1021.45 1021.55 1021.64 1021.73 1021.84
1026.19 1025.88 1025.54 1025.18 1024.82 1024.49 1024.17 1023.86 1023.55 1023.22 1022.85 1022.44 1021.98 1021.48 1020.97 1020.46 1019.98 1019.57 1019.25 1019.03 1018.93 1018.92 1019.00 1019.15 1019.35 1019.57 1019.81 1020.05 1020.29 1020.53 1020.76 1020.99 1021.22 1021.44 1021.64 1021.83 1021.99 1022.12 1022.22 1022.30 1022.37 1022.43 1022.49
1025.75 1025.46 1025.14 1024.81 1024.48 1024.15 1023.83 1023.50 1023.15 1022.77 1022.35 1021.90 1021.41 1020.90 1020.39 1019.92 1019.51 1019.19 1018.98 1018.87 1018.88 1018.98 1019.16 1019.40 1019.66 1019.94 1020.22 1020.49 1020.75 1021.00 1021.25 1021.49 1021.74 1021.97 1022.20 1022.41 1022.59 1022.73 1022.84 1022.92 1022.98 1023.02 1023.06
1025.36 1025.09 1024.81 1024.50 1024.19 1023.87 1023.54 1023.18 1022.78 1022.35 1021.87 1021.36 1020.83 1020.30 1019.80 1019.37 1019.02 1018.78 1018.66 1018.67 1018.78 1018.99 1019.26 1019.57 1019.89 1020.21 1020.52 1020.80 1021.07 1021.32 1021.57 1021.82 1022.07 1022.32 1022.56 1022.79 1022.99 1023.16 1023.29 1023.39 1023.45 1023.50 1023.53
1025.01 1024.76 1024.50 1024.22 1023.93 1023.62 1023.27 1022.88 1022.44 1021.95 1021.41 1020.85 1020.28 1019.73 1019.24 1018.83 1018.54 1018.37 1018.33 1018.43 1018.63 1018.91 1019.25 1019.62 1019.98 1020.33 1020.65 1020.94 1021.20 1021.45 1021.70 1021.95 1022.20 1022.47 1022.73 1022.98 1023.21 1023.42 1023.58 1023.71 1023.80 1023.86 1023.91
1024.67 1024.44 1024.20 1023.94 1023.66 1023.35 1022.99 1022.57 1022.09 1021.56 1020.98 1020.37 1019.77 1019.21 1018.73 1018.34 1018.09 1017.98 1018.01 1018.16 1018.42 1018.76 1019.14 1019.54 1019.92 1020.27 1020.59 1020.88 1021.14 1021.38 1021.63 1021.89 1022.15 1022.44 1022.73 1023.01 1023.28 1023.52 1023.73 1023.90 1024.03 1024.12 1024.19
1024.32 1024.10 1023.87 1023.63 1023.36 1023.04 1022.67 1022.23 1021.72 1021.16 1020.54 1019.92 1019.31 1018.75 1018.28 1017.92 1017.71 1017.64 1017.71 1017.90 1018.19 1018.55 1018.95 1019.34 1019.72 1020.07 1020.38 1020.66 1020.92 1021.16 1021.42 1021.69 1021.98 1022.29 1022.61 1022.94 1023.25 1023.53 1023.78 1023.99 1024.16 1024.28 1024.37
1023.96 1023.74 1023.51 1023.27 1023.00 1022.68 1022.29 1021.83 1021.31 1020.73 1020.10 1019.47 1018.87 1018.34 1017.89 1017.58 1017.40 1017.36 1017.46 1017.67 1017.98 1018.34 1018.72 1019.10 1019.47 1019.80 1020.09 1020.37 1020.62 1020.88 1021.15 1021.45 1021.77 1022.11 1022.47 1022.82 1023.17 1023.49 1023.77 1024.01 1024.20 1024.35 1024.46
1023.58 1023.35 1023.12 1022.87 1022.59 1022.25 1021.85 1021.38 1020.84 1020.26 1019.65 1019.04 1018.47 1017.97 1017.57 1017.30 1017.16 1017.16 1017.28 1017.51 1017.81 1018.16 1018.52 1018.88 1019.22 1019.53 1019.82 1020.09 1020.36 1020.63 1020.93 1021.25 1021.60 1021.97 1022.35 1022.73 1023.10 1023.43 1023.72 1023.97 1024.16 1024.31 1024.42
1023.21 1022.97 1022.72 1022.46 1022.15 1021.79 1021.37 1020.89 1020.35 1019.77 1019.18 1018.60 1018.08 1017.64 1017.30 1017.09 1017.01 1017.05 1017.19 1017.43 1017.73 1018.06 1018.41 1018.74 1019.06 1019.36 1019.65 1019.92 1020.20 1020.50 1020.82 1021.17 1021.54 1021.93 1022.32 1022.70 1023.06 1023.38 1023.65 1023.87 1024.04 1024.17 1024.25
1022.88 1022.62 1022.35 1022.06 1021.72 1021.33 1020.89 1020.39 1019.84 1019.28 1018.72 1018.19 1017.73 1017.36 1017.09 1016.95 1016.92 1017.01 1017.19 1017.44 1017.75 1018.07 1018.41 1018.73 1019.04 1019.33 1019.62 1019.91 1020.21 1020.52 1020.87 1021.23 1021.61 1022.00 1022.38 1022.74 1023.06 1023.33 1023.55 1023.72 1023.84 1023.91 1023.95
1022.59 1022.32 1022.03 1021.71 1021.34 1020.91 1020.44 1019.92 1019.37 1018.82 1018.29 1017.82 1017.42 1017.12 1016.93 1016.86 1016.90 1017.04 1017.26 1017.54 1017.85 1018.18 1018.51 1018.83 1019.14 1019.44 1019.74 1020.04 1020.36 1020.69 1021.05 1021.42 1021.79 1022.16 1022.51 1022.81 1023.07 1023.28 1023.42 1023.51 1023.56 1023.56 1023.54
1022.37 1022.09 1021.78 1021.42 1021.02 1020.56 1020.05 1019.51 1018.96 1018.42 1017.93 1017.50 1017.16 1016.93 1016.82 1016.82 1016.92 1017.12 1017.38 1017.69 1018.02 1018.37 1018.70 1019.03 1019.35 1019.66 1019.97 1020.28 1020.62 1020.96 1021.31 1021.67 1022.03 1022.35 1022.65 1022.89 1023.07 1023.19 1023.25 1023.26 1023.22 1023.16 1023.08
Thickness
5426 5426 5426 5426 5426 5426 5426 5427 5429 5431 5434 5436 5438 5439 5441 5442 5443 5445 5446 5448 5450 5452 5454 5456 5457 5459 5460 5461 5462 5464 5464 5465 5467 5469 5470 5472 5474 5477 5479 5481 5483 5485 5487
5417 5416 5416 5416 5416 5416 5417 5418 5419 5421 5423 5426 5428 5429 5431 5433 5434 5435 5436 5438 5440 5442 5444 5445 5447 5449 5450 5451 5452 5453 5453 5454 5456 5457 5458 5459 5461 5463 5465 5467 5469 5472 5474
5406 5406 5406 5406 5407 5407 5408 5409 5410 5411 5413 5415 5417 5419 5421 5423 5424 5425 5427 5428 5430 5432 5434 5435 5437 5438 5440 5441 5442 5443 5443 5445 5446 5446 5446 5447 5448 5450 5451 5453 5456 5458 5460
5396 5396 5396 5396 5397 5398 5399 5399 5400 5402 5403 5405 5407 5409 5411 5412 5414 5416 5417 5418 5420 5422 5424 5425 5427 5429 5430 5431 5432 5433 5434 5434 5435 5435 5435 5435 5436 5437 5438 5440 5442 5443 5445
5386 5386 5387 5387 5387 5388 5389 5390 5391 5392 5394 5395 5397 5398 5400 5402 5405 5407 5408 5409 5410 5412 5413 5415 5417 5419 5421 5423 5424 5424 5424 5424 5425 5425 5425 5425 5425 5425 5425 5427 5427 5429 5431
5377 5377 5377 5378 5378 5379 5379 5381 5382 5383 5384 5385 5387 5388 5390 5392 5395 5398 5399 5400 5401 5402 5404 5405 5408 5410 5411 5413 5415 5415 5416 5415 5416 5416 5416 5416 5415 5414 5414 5414 5414 5416 5417
5368 5368 5368 5369 5370 5370 5371 5371 5372 5373 5374 5376 5377 5378 5380 5383 5386 5389 5391 5391 5392 5393 5395 5396 5398 5400 5401 5403 5404 5405 5405 5406 5407 5407 5406 5405 5404 5404 5404 5403 5403 5403 5404
5359 5359 5360 5360 5361 5361 5362 5362 5363 5364 5365 5366 5368 5369 5371 5374 5377 5380 5381 5382 5383 5384 5386 5387 5388 5389 5391 5393 5394 5394 5394 5395 5396 5396 5396 5395 5395 5394 5394 5393 5393 5392 5393
5351 5351 5352 5353 5353 5353 5354 5354 5354 5355 5356 5357 5359 5361 5363 5365 5368 5371 5372 5373 5374 5375 5377 5378 5379 5380 5382 5384 5384 5384 5384 5384 5384 5385 5385 5385 5385 5385 5384 5383 5381 5381 5382
5344 5344 5345 5345 5346 5346 5346 5346 5346 5346 5347 5349 5350 5352 5354 5356 5359 5363 5365 5365 5366 5367 5369 5369 5371 5372 5374 5375 5374 5374 5373 5374 5374 5374 5374 5374 5374 5374 5373 5373 5372 5371 5370
5337 5338 5338 5338 5339 5339 5338 5338 5338 5339 5339 5340 5342 5344 5345 5348 5351 5355 5357 5358 5359 5360 5361 5361 5362 5364 5365 5366 5366 5366 5365 5365 5365 5364 5364 5363 5363 5363 5363 5363 5363 5362 5361
5331 5331 5331 5331 5332 5332 5331 5331 5331 5331 5331 5332 5334 5335 5337 5340 5343 5346 5349 5351 5352 5353 5353 5354 5355 5356 5357 5357 5357 5357 5357 5356 5355 5354 5353 5353 5353 5353 5353 5354 5353 5353 5353
5326 5325 5325 5325 5324 5325 5324 5324 5324 5324 5324 5326 5327 5328 5330 5333 5335 5338 5341 5343 5344 5345 5346 5347 5348 5348 5348 5348 5348 5348 5347 5346 5345 5344 5343 5343 5344 5344 5345 5345 5345 5345 5345
5321 5320 5319 5318 5318 5317 5317 5317 5317 5317 5318 5320 5321 5323 5324 5326 5329 5332 5333 5335 5336 5337 5338 5339 5339 5339 5339 5338 5338 5337 5336 5336 5336 5335 5334 5334 5335 5336 5336 5337 5337 5337 5337
5316 5315 5314 5313 5311 5311 5310 5310 5311 5312 5313 5315 5316 5317 5319 5321 5324 5327 5328 5329 5329 5330 5331 5331 5330 5330 5329 5329 5328 5328 5327 5327 5327 5327 5326 5326 5327 5328 5328 5329 5329 5329 5329
5311 5310 5308 5307 5306 5305 5304 5304 5305 5306 5309 5310 5311 5313 5314 5316 5319 5321 5323 5323 5324 5325 5324 5323 5322 5322 5321 5320 5320 5319 5319 5319 5319 5319 5319 5319 5320 5320 5321 5321 5322 5322 5322
5305 5304 5303 5302 5300 5299 5299 5298 5298 5300 5302 5303 5305 5307 5309 5311 5313 5315 5316 5317 5318 5319 5317 5316 5316 5315 5314 5313 5313 5312 5312 5312 5312 5312 5312 5312 5312 5313 5314 5314 5315 5315 5316
5300 5299 5298 5296 5295 5294 5293 5292 5292 5293 5294 5296 5298 5301 5303 5305 5307 5308 5309 5310 5309 5310 5310 5310 5310 5309 5308 5307 5306 5305 5305 5305 5306 5306 5306 5306 5306 5306 5307 5307 5308 5309 5310
5295 5294 5293 5291 5290 5289 5288 5287 5287 5287 5288 5289 5291 5293 5296 5298 5299 5300 5302 5302 5302 5303 5303 5303 5303 5303 5303 5302 5301 5300 5300 5300 5300 5300 5301 5301 5301 5301 5301 5302 5302 5304 5305
5289 5289 5288 5287 5285 5284 5283 5283 5282 5282 5283 5284 5285 5287 5289 5291 5291 5293 5294 5295 5296 5297 5297 5297 5297 5298 5297 5297 5296 5295 5295 5295 5295 5295 5296 5296 5296 5297 5297 5297 5298 5298 5299
5284 5283 5283 5282 5281 5280 5279 5278 5278 5278 5278 5279 5281 5283 5286 5286 5286 5287 5288 5289 5290 5291 5291 5292 5292 5292 5292 5292 5291 5291 5291 5291 5291 5291 5292 5292 5293 5293 5293 5293 5294 5294 5295
5279 5279 5278 5277 5276 5275 5275 5274 5274 5274 5275 5276 5277 5279 5282 5281 5282 5283 5284 5284 5285 5285 5286 5287 5287 5287 5288 5287 5287 5287 5287 5287 5288 5288 5289 5289 5289 5290 5290 5290 5291 5291 5292
5276 5275 5274 5273 5273 5272 5271 5270 5271 5271 5272 5273 5274 5275 5276 5277 5278 5278 5279 5280 5281 5281 5282 5282 5283 5284 5284 5284 5284 5284 5284 5285 5285 5286 5286 5287 5287 5288 5288 5288 5288 5288 5289
5272 5272 5271 5270 5269 5269 5268 5268 5268 5268 5269 5270 5271 5272 5272 5273 5274 5275 5276 5276 5277 5278 5278 5279 5280 5281 5281 5282 5282 5282 5282 5283 5284 5284 5285 5285 5285 5285 5285 5286 5286 5286 5286
5269 5268 5268 5267 5266 5266 5266 5266 5266 5266 5267 5267 5268 5269 5269 5270 5271 5271 5272 5273 5274 5274 5275 5276 5277 5278 5279 5279 5280 5280 5281 5282 5283 5284 5284 5284 5284 5284 5284 5284 5284 5284 5284
5267 5266 5265 5265 5265 5265 5264 5264 5264 5264 5264 5265 5265 5266 5266 5267 5268 5269 5269 5270 5271 5272 5272 5273 5274 5275 5276 5277 5278 5279 5280 5280 5281 5282 5283 5283 5283 5282 5282 5282 5282 5282 5282